Location: Most
(50.5330°N, 13.6500°E)
Time: 06:22:45
(UTC+01:00)

N. Korean satellite - Pass Details

Date: 23 October 2021
Orbit: 446 x 495 km, 97.3° (Epoch: 04 December)

Event Time Altitude Azimuth Distance (km) Brightness Sun altitude
Rises 06:26:57 0° 13° (NNE) 2,601 10.4 -12.4°
Reaches altitude 10° 06:29:03 10° 15° (NNE) 1,711 9.5 -12.1°
Maximum altitude 06:32:45 79° 101° (ESE) 511 6.7 -11.5°
Drops below altitude 10° 06:36:23 10° 190° (S) 1,684 9.2 -10.9°
Sets 06:38:26 0° 192° (SSW) 2,555 10.2 -10.6°
